Location: Fort Wayne
(41.1310°N, 85.1290°W)
Time: 15:48:22
(UTC-04:00)

ISS - Visible Passes

Search period start: 23 August 2014 00:00
Search period end: 02 September 2014 00:00
Orbit: 413 x 419 km, 51.6° (Epoch: 23 August)

Date Brightness Start Highest point End Pass type
(mag) Time Alt. Az. Time Alt. Az. Time Alt. Az.
23 Aug -2.8 21:07:26 10° WNW 21:10:43 57° SW 21:13:58 10° SE visible
24 Aug -0.5 21:57:16 10° WSW 21:58:27 12° SW 21:59:37 10° SSW visible
25 Aug -1.0 21:07:31 10° W 21:10:03 20° SW 21:12:33 10° S visible
